DateTimeUTC,F1_A11,F1_S11,BsB_S11,BsG_S11,BsR_S11,BbsB_S11,BbsG_S11,BbsR_S11,BaB_A11,BaG_A11,BaR_A11,Tu_S11,T_S11,Uu_S11,U_S11,P_S11,T1_A11
2021-08-22T21:00:00Z,00000200,20000000,,,,,,,-000.08,0000.31,-000.00,20.5,27.2,08.2,05.5,0677.6,31.3
2021-08-22T21:01:00Z,00000200,20000000,,,,,,,0000.09,-000.17,0000.35,20.5,27.2,08.2,05.5,0677.6,31.3
2021-08-22T21:02:00Z,00000200,20000000,,,,,,,0000.07,0000.06,-000.37,20.5,27.2,08.2,05.5,0677.6,31.3
2021-08-22T21:03:00Z,00000200,60000000,,,,,,,0001.27,0001.09,0001.23,20.5,27.2,08.2,05.5,0677.6,31.3
2021-08-22T21:04:00Z,00000200,40000000,0006.21,0005.36,0003.78,0001.09,0000.55,0000.43,0001.18,0001.10,0000.58,20.6,27.0,08.3,05.7,0678.5,31.3
2021-08-22T21:05:00Z,00000200,00000000,0005.98,0005.55,0003.68,0000.94,0000.88,0000.45,0001.54,0001.57,0001.20,20.7,27.0,08.3,05.7,0678.6,31.3
2021-08-22T21:06:00Z,00000200,00000000,0006.44,0005.65,0003.56,0000.63,0000.93,0000.57,0001.44,0001.19,0001.21,20.6,27.0,08.3,05.7,0678.6,31.3
2021-08-22T21:07:00Z,00000200,00000000,0006.58,0005.95,0003.48,0000.89,0001.02,0000.34,0001.70,0001.55,0001.25,20.6,27.0,08.3,05.7,0678.6,31.3
2021-08-22T21:08:00Z,00000200,00000000,0006.57,0005.37,0003.61,0000.86,0000.78,0000.67,0001.44,0001.29,0001.01,20.6,26.9,08.4,05.8,0678.6,31.2
2021-08-22T21:09:00Z,00000200,00000000,0006.93,0005.54,0004.20,0000.95,0000.89,0000.88,0001.55,0001.52,0000.96,20.6,26.9,08.4,05.7,0678.6,31.2
2021-08-22T21:10:00Z,00000200,00000000,0006.76,0005.35,0003.67,0000.18,0000.63,0000.40,0001.54,0001.33,0001.10,20.6,26.9,08.3,05.7,0678.6,31.2
2021-08-22T21:11:00Z,00000200,00000000,0006.72,0005.54,0003.68,0001.18,0000.76,0000.35,0001.26,0001.31,0001.19,20.6,26.9,08.4,05.8,0678.6,31.2
2021-08-22T21:12:00Z,00000200,00000000,0006.58,0005.57,0003.33,0001.08,0000.48,0000.44,0001.01,0001.10,0001.08,20.6,26.9,08.4,05.8,0678.6,31.2
2021-08-22T21:13:00Z,00000200,00000000,0006.08,0005.03,0003.05,0000.95,0000.87,0000.72,0000.28,0000.06,-000.10,20.6,26.9,07.7,05.2,0678.5,31.2
2021-08-22T21:14:00Z,00000200,00000000,0006.21,0004.78,0003.14,0001.03,0001.03,0000.67,0001.09,0001.10,0000.78,20.6,26.9,07.2,04.9,0678.5,31.2
2021-08-22T21:15:00Z,00000200,00000000,0006.52,0004.88,0003.31,0001.26,0000.66,0000.36,0001.83,0001.53,0001.41,20.6,26.9,07.2,04.9,0678.6,31.2
2021-08-22T21:16:00Z,00000200,00000000,0006.90,0005.09,0003.10,0000.82,0000.69,0000.60,0001.06,0000.81,0000.83,20.6,26.9,07.4,05.0,0678.6,31.2
2021-08-22T21:17:00Z,00000200,00000000,0005.53,0004.90,0003.43,0001.28,0000.74,0000.64,0000.73,0000.84,0000.37,20.6,26.9,07.0,04.8,0678.6,31.2
2021-08-22T21:18:00Z,00000200,00000000,0005.56,0005.15,0003.02,0001.00,0000.64,0000.45,0001.28,0001.28,0001.31,20.6,26.9,07.0,04.8,0678.6,31.2
2021-08-22T21:19:00Z,00000200,00000000,0006.20,0004.90,0003.42,0000.44,0000.86,0000.10,0001.65,0001.41,0000.89,20.6,26.9,07.1,04.8,0678.6,31.2
2021-08-22T21:20:00Z,00000200,00000000,0005.20,0005.57,0003.55,0000.46,0000.76,0000.41,0001.40,0001.58,0001.56,20.5,26.9,07.1,04.9,0678.5,31.2
2021-08-22T21:21:00Z,00000200,00000000,0006.39,0004.92,0003.55,0000.87,0000.78,0000.51,0002.22,0001.73,0001.30,20.5,26.8,07.5,05.1,0678.5,31.2
2021-08-22T21:22:00Z,00000200,00000000,0007.12,0005.32,0003.80,0001.69,0000.49,0000.37,0001.93,0001.92,0001.65,20.5,26.8,07.8,05.3,0678.5,31.2
2021-08-22T21:23:00Z,00000200,00000000,0006.82,0005.91,0003.99,0000.87,0000.62,0000.48,0001.78,0001.72,0001.20,20.5,26.8,08.0,05.5,0678.5,31.2
2021-08-22T21:24:00Z,00000200,00000000,0006.74,0005.55,0003.69,0001.06,0000.91,0000.54,0001.74,0001.36,0001.07,20.5,26.8,08.2,05.6,0678.5,31.2
2021-08-22T21:25:00Z,00000200,00000000,0006.97,0005.55,0003.69,0000.77,0000.87,0000.27,0001.44,0001.15,0001.33,20.5,26.8,08.3,05.6,0678.5,31.2
2021-08-22T21:26:00Z,00000200,00000000,0006.83,0005.62,0003.98,0000.61,0000.78,0000.57,0001.80,0001.85,0001.00,20.5,26.8,08.2,05.6,0678.5,31.2
2021-08-22T21:27:00Z,00000200,00000000,0006.34,0005.10,0003.73,0000.51,0000.68,0000.59,0001.17,0001.12,0001.31,20.5,26.8,08.3,05.6,0678.5,31.2
2021-08-22T21:28:00Z,00000200,00000000,0006.63,0005.44,0003.58,0000.74,0001.00,0000.48,0001.31,0001.37,0000.71,20.5,26.8,08.3,05.6,0678.5,31.1
2021-08-22T21:29:00Z,00000200,00000000,0007.39,0005.38,0003.94,0001.50,0000.70,0000.74,0001.38,0001.07,0001.19,20.5,26.8,08.3,05.7,0678.5,31.1
2021-08-22T21:30:00Z,00000200,00000000,0006.70,0005.48,0003.72,0000.28,0000.82,0000.67,0001.62,0001.82,0001.16,20.5,26.8,08.2,05.6,0678.5,31.1
2021-08-22T21:31:00Z,00000200,00000000,0006.76,0005.06,0003.42,0000.97,0000.78,0000.36,0001.04,0001.06,0001.02,20.5,26.8,08.2,05.6,0678.5,31.1
2021-08-22T21:32:00Z,00000200,00000000,0007.22,0005.02,0003.43,0001.60,0000.77,0000.41,0001.68,0001.34,0001.30,20.5,26.8,08.0,05.5,0678.5,31.1
2021-08-22T21:33:00Z,00000200,00000000,0006.50,0005.40,0004.00,0001.36,0001.12,0000.92,0001.59,0001.56,0001.01,20.4,26.8,08.1,05.5,0678.5,31.1
2021-08-22T21:34:00Z,00000200,00000000,0006.61,0006.07,0003.93,0000.92,0000.66,0000.71,0001.58,0001.61,0000.98,20.4,26.8,08.3,05.7,0678.4,31.1
2021-08-22T21:35:00Z,00000200,00000000,0006.98,0005.72,0003.43,0000.75,0000.51,0000.17,0001.19,0001.11,0001.12,20.4,26.8,08.3,05.6,0678.4,31.1
2021-08-22T21:36:00Z,00000200,00000000,0007.70,0005.18,0004.09,0001.73,0000.83,0000.70,0001.75,0001.49,0001.19,20.4,26.8,08.1,05.6,0678.4,31.1
2021-08-22T21:37:00Z,00000200,00000000,0006.91,0005.90,0003.48,0001.22,0000.66,0000.64,0001.47,0001.43,0001.07,20.4,26.7,08.2,05.6,0678.4,31.1
2021-08-22T21:38:00Z,00000200,00000000,0007.21,0005.38,0003.89,0000.50,0000.67,0000.65,0001.48,0001.14,0001.42,20.4,26.8,08.4,05.7,0678.4,31.1
2021-08-22T21:39:00Z,00000200,00000000,0007.31,0005.70,0003.71,0001.18,0000.86,0000.75,0001.44,0001.49,0001.02,20.4,26.7,08.3,05.6,0678.4,31.1
2021-08-22T21:40:00Z,00000200,00000000,0006.71,0005.19,0003.90,0000.68,0000.98,0000.82,0001.47,0001.42,0000.88,20.4,26.7,08.1,05.5,0678.5,31.1
2021-08-22T21:41:00Z,00000200,00000000,0006.40,0005.89,0003.60,0001.03,0000.60,0000.36,0001.30,0000.95,0001.10,20.4,26.7,08.1,05.5,0678.4,31.1
2021-08-22T21:42:00Z,00000200,00000000,0006.25,0005.46,0003.72,0000.90,0000.73,0000.41,0001.26,0001.43,0001.02,20.4,26.7,08.1,05.5,0678.4,31.1
2021-08-22T21:43:00Z,00000200,00000000,0006.39,0005.74,0003.60,0001.04,0001.00,0000.67,0001.45,0001.37,0001.05,20.4,26.7,08.1,05.5,0678.4,31.1
2021-08-22T21:44:00Z,00000200,00000000,0007.63,0005.73,0003.64,0000.69,0000.78,0000.21,0001.56,0001.10,0001.04,20.4,26.7,08.2,05.6,0678.4,31.1
2021-08-22T21:45:00Z,00000200,00000000,0006.16,0005.33,0004.07,0001.24,0000.83,0000.94,0001.09,0001.29,0000.85,20.4,26.7,07.9,05.4,0678.4,31.1
2021-08-22T21:46:00Z,00000200,00000000,0006.45,0004.91,0003.78,0000.94,0000.58,0000.61,0001.39,0001.29,0001.02,20.4,26.7,07.9,05.4,0678.4,31.1
2021-08-22T21:47:00Z,00000200,00000000,0006.28,0005.29,0003.48,0001.91,0000.69,0000.45,0001.28,0001.26,0001.04,20.4,26.7,07.8,05.3,0678.4,31.1
2021-08-22T21:48:00Z,00000200,00000000,0006.87,0005.21,0003.78,0000.61,0000.61,0000.76,0001.34,0001.24,0001.20,20.4,26.7,07.7,05.2,0678.4,31.1
2021-08-22T21:49:00Z,00000200,00000000,0006.64,0005.15,0003.75,0001.17,0000.57,0000.52,0001.37,0001.37,0001.08,20.4,26.7,07.8,05.3,0678.4,31.1
2021-08-22T21:50:00Z,00000200,00000000,0006.12,0005.11,0003.34,0000.66,0000.66,0000.42,0001.42,0001.52,0000.96,20.4,26.7,07.9,05.4,0678.4,31.1
2021-08-22T21:51:00Z,00000200,00000000,0007.29,0005.30,0003.46,0000.93,0000.78,0000.30,0001.92,0001.24,0001.37,20.4,26.7,08.0,05.5,0678.4,31.1
2021-08-22T21:52:00Z,00000200,00000000,0007.52,0005.49,0003.49,0000.77,0000.38,0000.48,0001.40,0001.49,0000.84,20.4,26.7,08.1,05.6,0678.4,31.1
2021-08-22T21:53:00Z,00000200,00000000,0006.12,0005.05,0003.70,0000.97,0000.96,0000.44,0001.18,0001.36,0001.36,20.3,26.7,08.1,05.5,0678.4,31.1
2021-08-22T21:54:00Z,00000200,00000000,0006.82,0005.33,0003.84,0001.28,0000.85,0000.50,0001.62,0001.27,0000.68,20.3,26.7,07.9,05.4,0678.4,31.1
2021-08-22T21:55:00Z,00000200,00000000,0007.22,0005.39,0003.89,0001.38,0000.63,0000.73,0001.09,0001.23,0001.27,20.3,26.7,08.0,05.5,0678.4,31.1
2021-08-22T21:56:00Z,00000200,00010000,0007.56,0005.29,0003.58,0000.99,0000.96,0000.55,0001.57,0001.34,0000.86,20.3,26.6,08.0,05.5,0678.4,31.1
2021-08-22T21:57:00Z,00000200,40000000,,,,,,,0000.58,0000.37,0000.61,20.3,26.7,08.4,05.7,0678.5,31.1
2021-08-22T21:58:00Z,00000200,60000000,,,,,,,0000.05,0000.21,-000.11,20.1,26.7,08.1,05.4,0677.4,31.1
2021-08-22T21:59:00Z,00000200,20000000,,,,,,,-000.20,-000.18,-000.01,20.1,26.8,08.1,05.4,0677.4,31.2
